Weather History for EGMC - April, 2013

Change the Weather History Date:

Friday, April 5, 2013

  Actual Average Record
Temperature  
Mean Temperature 38 °F -  
Max Temperature 42 °F 56 °F 62 °F (1997)
Min Temperature 33 °F 41 °F 28 °F (2006)
Degree Days  
Heating Degree Days 28    
Moisture  
Dew Point 28 °F    
Average Humidity 66    
Maximum Humidity 81    
Minimum Humidity 45    
Precipitation  
Precipitation 0.00 in - - ()
Sea Level Pressure  
Sea Level Pressure 29.98 in    
Wind  
Wind Speed 14 mph ()    
Max Wind Speed 29 mph    
Max Gust Speed 36 mph    
Visibility 6.2 miles    
Events      
Averages and records for this station are not official NWS values.
T = Trace of Precipitation, MM = Missing Value Source: Averaged Metar Reports

Daily Weather History Graph

Daily Weather History Graph

Search for Another Location

Airport or City:

Trip Planner

Search our weather history database for the weather conditions in past years. The results will help you decide how hot, cold, wet, or windy it might be!

Date:

Astronomy

Apr. 05, 2013 Rise Set
Actual Time 6:23 AM BST 7:37 PM BST
Civil Twilight 5:49 AM BST 8:11 PM BST
Nautical Twilight 5:07 AM BST 8:53 PM BST
Astronomical Twilight 4:22 AM BST 9:39 PM BST
Moon 3:55 AM BST 2:13 PM BST
Length of Visible Light 14h 22m
Length of Day
13h 14m
Waning Crescent, 26% of the Moon is Illuminated
Apr 5
Waning Crescent
Apr 10
New
Apr 18
First Quarter
Apr 25
Full
May 2
Last Quarter

Hourly Weather History & Observations

Time (BST) Temp. Windchill Dew Point Humidity Pressure Visibility Wind Dir Wind Speed Gust Speed Precip Events Conditions
12:50 AM 33.8 °F 23.9 °F 28.4 °F 81% 29.92 in 6.2 mi North 15.0 mph - N/A   Overcast
1:50 AM 35.6 °F 26.6 °F 30.2 °F 81% 29.89 in 6.2 mi North 13.8 mph - N/A   Mostly Cloudy
2:50 AM 35.6 °F 26.2 °F 30.2 °F 81% 29.89 in 6.2 mi North 15.0 mph - N/A   Scattered Clouds
3:50 AM 35.6 °F 26.6 °F 30.2 °F 81% 29.89 in 6.2 mi North 13.8 mph - N/A   Scattered Clouds
4:50 AM 35.6 °F 26.6 °F 30.2 °F 81% 29.89 in 6.2 mi NNE 13.8 mph - N/A   Mostly Cloudy
5:20 AM 37.4 °F 28.5 °F 30.2 °F 75% 29.89 in 6.2 mi NNE 15.0 mph - N/A   Mostly Cloudy
5:50 AM 37.4 °F 28.9 °F 32.0 °F 81% 29.89 in 6.2 mi NNE 13.8 mph - N/A   Overcast
6:20 AM 37.4 °F 28.5 °F 32.0 °F 81% 29.89 in 6.2 mi NNE 15.0 mph - N/A   Mostly Cloudy
6:50 AM 37.4 °F 28.5 °F 32.0 °F 81% 29.89 in 6.2 mi NNE 15.0 mph - N/A   Mostly Cloudy
7:20 AM 37.4 °F 28.5 °F 30.2 °F 75% 29.89 in 6.2 mi NNE 15.0 mph - N/A   Mostly Cloudy
7:50 AM 37.4 °F 28.9 °F 32.0 °F 81% 29.89 in 6.2 mi NNE 13.8 mph - N/A   Mostly Cloudy
8:20 AM 37.4 °F 28.9 °F 32.0 °F 81% 29.92 in 6.2 mi NNE 13.8 mph 25.3 mph N/A   Mostly Cloudy
8:50 AM 37.4 °F 28.9 °F 32.0 °F 81% 29.92 in 6.2 mi NNE 13.8 mph - N/A   Mostly Cloudy
9:20 AM 37.4 °F 27.5 °F 32.0 °F 81% 29.92 in 6.2 mi NE 18.4 mph - N/A   Mostly Cloudy
9:50 AM 39.2 °F 30.2 °F 32.0 °F 75% 29.92 in 6.2 mi NE 17.3 mph - N/A   Mostly Cloudy
10:20 AM 39.2 °F 29.8 °F 30.2 °F 70% 29.95 in 6.2 mi NE 18.4 mph 34.5 mph N/A   Mostly Cloudy
10:50 AM 41.0 °F 32.2 °F 30.2 °F 65% 29.95 in 6.2 mi NE 18.4 mph - N/A   Scattered Clouds
11:20 AM 41.0 °F 31.9 °F 28.4 °F 61% 29.95 in 6.2 mi NE 19.6 mph - N/A   Scattered Clouds
11:50 AM 41.0 °F 30.0 °F 30.2 °F 65% 29.98 in 6.2 mi NE 28.8 mph - N/A   Partly Cloudy
12:20 PM 42.8 °F 33.5 °F 28.4 °F 57% 29.98 in 6.2 mi NE 23.0 mph - N/A   Partly Cloudy
12:50 PM 41.0 °F 31.1 °F 26.6 °F 57% 29.98 in 6.2 mi NE 23.0 mph - N/A   Scattered Clouds
1:20 PM 42.8 °F 33.5 °F 24.8 °F 49% 29.98 in 6.2 mi NE 23.0 mph 35.7 mph N/A   Partly Cloudy
1:50 PM 42.8 °F 33.8 °F 26.6 °F 53% 29.98 in 6.2 mi NE 21.9 mph 34.5 mph N/A   Partly Cloudy
2:20 PM 42.8 °F 33.8 °F 24.8 °F 49% 29.98 in 6.2 mi NE 21.9 mph - N/A   Partly Cloudy
2:50 PM 42.8 °F 34.3 °F 28.4 °F 57% 29.98 in 6.2 mi NE 19.6 mph - N/A   Partly Cloudy
3:20 PM 42.8 °F 35.1 °F 26.6 °F 53% 29.98 in 6.2 mi NE 16.1 mph - N/A   Partly Cloudy
3:50 PM 42.8 °F 34.8 °F 26.6 °F 53% 29.98 in 6.2 mi ENE 17.3 mph - N/A   Partly Cloudy
4:20 PM 42.8 °F 35.1 °F 28.4 °F 57% 29.98 in 6.2 mi ENE 16.1 mph - N/A   Partly Cloudy
4:50 PM 42.8 °F 35.1 °F 24.8 °F 49% 30.01 in 6.2 mi ENE 16.1 mph - N/A   Partly Cloudy
5:20 PM 42.8 °F 36.2 °F 23.0 °F 46% 30.01 in 6.2 mi ENE 12.7 mph - N/A   Partly Cloudy
5:50 PM 42.8 °F 36.2 °F 24.8 °F 49% 30.01 in 6.2 mi ENE 12.7 mph - N/A   Partly Cloudy
6:20 PM 41.0 °F 33.9 °F 24.8 °F 53% 30.01 in 6.2 mi ENE 12.7 mph - N/A   Partly Cloudy
6:50 PM 41.0 °F 35.2 °F 23.0 °F 49% 30.04 in 6.2 mi NE 9.2 mph - N/A   Partly Cloudy
7:20 PM 41.0 °F 33.9 °F 21.2 °F 45% 30.04 in - NNE 12.7 mph - N/A   Clear
7:50 PM 39.2 °F 33.0 °F 19.4 °F 45% 30.04 in - NNE 9.2 mph - N/A   Clear
8:20 PM 37.4 °F 30.8 °F 21.2 °F 52% 30.06 in - North 9.2 mph - N/A   Clear
8:50 PM 37.4 °F 30.8 °F 23.0 °F 56% 30.06 in - NNE 9.2 mph - N/A   Clear
9:20 PM 35.6 °F 28.6 °F 23.0 °F 60% 30.06 in - NNE 9.2 mph - N/A   Clear
9:50 PM 35.6 °F 29.2 °F 26.6 °F 70% 30.09 in - North 8.1 mph - N/A   Clear
10:20 PM 35.6 °F 29.2 °F 28.4 °F 75% 30.09 in - North 8.1 mph - N/A   Clear
10:50 PM 35.6 °F 29.9 °F 28.4 °F 75% 30.09 in - North 6.9 mph - N/A   Clear
11:20 PM 35.6 °F 29.2 °F 30.2 °F 81% 30.09 in - North 8.1 mph - N/A   Clear
11:50 PM 35.6 °F 29.9 °F 30.2 °F 81% 30.09 in - North 6.9 mph - N/A   Clear